Time,TemperatureF,DewpointF,PressureIn,WindDirection,WindDirectionDegrees,WindSpeedMPH,WindSpeedGustMPH,Humidity,HourlyPrecipIn,Conditions,Clouds,dailyrainin,SoftwareType,DateUTC
2013-10-29 00:01:00,39.5,34.8,30.33,NW,321,0.0,0.0,83,0.00,,SKC,0.00,VWS V14.01,2013-10-29 04:01:00,
2013-10-29 00:02:00,39.5,34.8,30.33,NW,321,0.0,0.0,83,0.00,,SKC,0.00,VWS V14.01,2013-10-29 04:02:00,
2013-10-29 00:03:00,39.5,34.8,30.33,NW,321,0.0,0.0,83,0.00,,SKC,0.00,VWS V14.01,2013-10-29 04:03:00,
2013-10-29 00:08:00,39.2,34.5,30.33,NW,321,0.0,0.0,83,0.00,,SKC,0.00,VWS V14.01,2013-10-29 04:08:00,
2013-10-29 00:13:00,39.1,34.4,30.33,NW,321,0.0,0.0,83,0.00,,SKC,0.00,VWS V14.01,2013-10-29 04:13:00,
2013-10-29 00:18:00,38.9,34.5,30.33,NW,321,0.0,0.0,84,0.00,,SKC,0.00,VWS V14.01,2013-10-29 04:18:00,
2013-10-29 00:23:00,38.8,34.1,30.33,NW,321,0.0,0.0,83,0.00,,SKC,0.00,VWS V14.01,2013-10-29 04:23:00,
2013-10-29 00:28:00,38.8,34.1,30.33,NW,321,0.0,0.0,83,0.00,,SKC,0.00,VWS V14.01,2013-10-29 04:28:00,
2013-10-29 00:33:00,38.8,34.4,30.33,NW,321,0.0,0.0,84,0.00,,SKC,0.00,VWS V14.01,2013-10-29 04:33:00,
2013-10-29 00:38:00,38.6,34.2,30.33,NW,321,0.0,0.0,84,0.00,,SKC,0.00,VWS V14.01,2013-10-29 04:38:00,
2013-10-29 00:43:00,38.8,34.4,30.33,NW,321,0.0,0.0,84,0.00,,SKC,0.00,VWS V14.01,2013-10-29 04:43:00,
2013-10-29 00:48:00,38.8,34.1,30.33,NW,321,0.0,0.0,83,0.00,,SKC,0.00,VWS V14.01,2013-10-29 04:48:00,
2013-10-29 00:54:00,38.8,34.4,30.33,NW,321,0.0,0.0,84,0.00,,SKC,0.00,VWS V14.01,2013-10-29 04:54:00,
2013-10-29 00:59:00,38.6,34.2,30.33,NW,321,0.0,0.0,84,0.00,,SKC,0.00,VWS V14.01,2013-10-29 04:59:00,
2013-10-29 01:04:00,38.5,34.4,30.33,NW,321,0.0,0.0,85,0.00,,SKC,0.00,VWS V14.01,2013-10-29 05:04:00,
2013-10-29 01:09:00,38.3,34.2,30.33,NW,321,0.0,0.0,85,0.00,,SKC,0.00,VWS V14.01,2013-10-29 05:09:00,
2013-10-29 01:14:00,38.3,34.2,30.33,NW,321,0.0,0.0,85,0.00,,SKC,0.00,VWS V14.01,2013-10-29 05:14:00,
2013-10-29 01:19:00,38.3,34.2,30.33,NW,321,0.0,0.0,85,0.00,,SKC,0.00,VWS V14.01,2013-10-29 05:19:00,
2013-10-29 01:24:00,38.2,34.4,30.33,NW,321,0.0,0.0,86,0.00,,SKC,0.00,VWS V14.01,2013-10-29 05:24:00,
2013-10-29 01:29:00,38.2,34.4,30.33,NW,321,0.0,0.0,86,0.00,,SKC,0.00,VWS V14.01,2013-10-29 05:29:00,
2013-10-29 01:34:00,38.2,34.4,30.33,NW,321,0.0,0.0,86,0.00,,SKC,0.00,VWS V14.01,2013-10-29 05:34:00,
2013-10-29 01:39:00,38.0,34.2,30.33,NW,321,0.0,0.0,86,0.00,,SKC,0.00,VWS V14.01,2013-10-29 05:39:00,
2013-10-29 01:44:00,38.0,34.2,30.33,NW,321,0.0,0.0,86,0.00,,SKC,0.00,VWS V14.01,2013-10-29 05:44:00,
2013-10-29 01:49:00,38.0,34.2,30.33,NW,321,0.0,0.0,86,0.00,,SKC,0.00,VWS V14.01,2013-10-29 05:49:00,
2013-10-29 01:54:00,38.2,34.4,30.34,NW,321,0.0,0.0,86,0.00,,SKC,0.00,VWS V14.01,2013-10-29 05:54:00,
2013-10-29 02:00:00,38.2,34.4,30.34,NW,321,0.0,0.0,86,0.00,,SKC,0.00,VWS V14.01,2013-10-29 06:00:00,
2013-10-29 02:05:00,38.2,34.1,30.34,NW,321,0.0,0.0,85,0.00,,SKC,0.00,VWS V14.01,2013-10-29 06:05:00,
2013-10-29 02:10:00,38.0,33.9,30.34,NW,321,0.0,0.0,85,0.00,,SKC,0.00,VWS V14.01,2013-10-29 06:10:00,
2013-10-29 02:15:00,38.2,34.1,30.34,NW,321,0.0,0.0,85,0.00,,SKC,0.00,VWS V14.01,2013-10-29 06:15:00,
2013-10-29 02:20:00,38.0,34.2,30.34,NW,321,0.0,0.0,86,0.00,,SKC,0.00,VWS V14.01,2013-10-29 06:20:00,
2013-10-29 02:25:00,38.0,34.2,30.34,NW,321,0.0,0.0,86,0.00,,SKC,0.00,VWS V14.01,2013-10-29 06:25:00,
2013-10-29 02:30:00,38.0,34.2,30.34,NW,321,0.0,0.0,86,0.00,,SKC,0.00,VWS V14.01,2013-10-29 06:30:00,
2013-10-29 02:35:00,38.0,34.2,30.34,NW,321,0.0,0.0,86,0.00,,SKC,0.00,VWS V14.01,2013-10-29 06:35:00,
2013-10-29 02:40:00,38.2,34.1,30.34,NW,321,0.0,0.0,85,0.00,,SKC,0.00,VWS V14.01,2013-10-29 06:40:00,
2013-10-29 02:45:00,38.3,33.9,30.34,NW,321,0.0,0.0,84,0.00,,SKC,0.00,VWS V14.01,2013-10-29 06:45:00,
2013-10-29 02:50:00,38.3,33.9,30.34,NW,321,0.0,0.0,84,0.00,,SKC,0.00,VWS V14.01,2013-10-29 06:50:00,
2013-10-29 02:55:00,38.2,33.8,30.34,NW,321,0.0,0.0,84,0.00,,SKC,0.00,VWS V14.01,2013-10-29 06:55:00,
2013-10-29 03:00:00,38.0,33.6,30.34,NW,321,0.0,0.0,84,0.00,,SKC,0.00,VWS V14.01,2013-10-29 07:00:00,
2013-10-29 03:06:00,38.0,33.9,30.34,NW,321,0.0,0.0,85,0.00,,SKC,0.00,VWS V14.01,2013-10-29 07:06:00,
2013-10-29 03:11:00,37.9,33.8,30.34,NW,321,0.0,0.0,85,0.00,,SKC,0.00,VWS V14.01,2013-10-29 07:11:00,
2013-10-29 03:16:00,37.8,34.0,30.34,NW,321,0.0,0.0,86,0.00,,SKC,0.00,VWS V14.01,2013-10-29 07:16:00,
2013-10-29 03:21:00,37.5,33.7,30.34,NW,321,0.0,0.0,86,0.00,,SKC,0.00,VWS V14.01,2013-10-29 07:21:00,
2013-10-29 03:26:00,37.5,34.0,30.34,NW,321,0.0,0.0,87,0.00,,SKC,0.00,VWS V14.01,2013-10-29 07:26:00,
2013-10-29 03:31:00,37.2,33.7,30.34,NW,321,0.0,0.0,87,0.00,,SKC,0.00,VWS V14.01,2013-10-29 07:31:00,
2013-10-29 03:36:00,37.0,33.8,30.34,NW,321,0.0,0.0,88,0.00,,SKC,0.00,VWS V14.01,2013-10-29 07:36:00,
2013-10-29 03:41:00,36.9,33.7,30.34,NW,321,0.0,0.0,88,0.00,,SKC,0.00,VWS V14.01,2013-10-29 07:41:00,
2013-10-29 03:46:00,36.9,34.0,30.34,NW,321,0.0,0.0,89,0.00,,SKC,0.00,VWS V14.01,2013-10-29 07:46:00,
2013-10-29 03:51:00,36.9,34.0,30.34,NW,321,0.0,0.0,89,0.00,,SKC,0.00,VWS V14.01,2013-10-29 07:51:00,
2013-10-29 03:56:00,36.9,34.2,30.34,NW,321,0.0,0.0,90,0.00,,SKC,0.00,VWS V14.01,2013-10-29 07:56:00,
2013-10-29 04:01:00,36.8,34.2,30.34,NW,321,0.0,0.0,90,0.00,,SKC,0.00,VWS V14.01,2013-10-29 08:01:00,
2013-10-29 04:06:00,36.9,34.2,30.34,NW,321,0.0,0.0,90,0.00,,SKC,0.00,VWS V14.01,2013-10-29 08:06:00,
2013-10-29 04:11:00,37.0,34.1,30.34,NW,321,0.0,0.0,89,0.00,,SKC,0.00,VWS V14.01,2013-10-29 08:11:00,
2013-10-29 04:16:00,36.9,34.0,30.34,NW,321,0.0,0.0,89,0.00,,SKC,0.00,VWS V14.01,2013-10-29 08:16:00,
2013-10-29 04:21:00,37.0,34.1,30.34,NW,321,0.0,0.0,89,0.00,,SKC,0.00,VWS V14.01,2013-10-29 08:21:00,
2013-10-29 04:26:00,37.2,34.3,30.34,NW,321,0.0,0.0,89,0.00,,SKC,0.00,VWS V14.01,2013-10-29 08:26:00,
2013-10-29 04:31:00,37.2,34.0,30.34,NW,321,0.0,0.0,88,0.00,,SKC,0.00,VWS V14.01,2013-10-29 08:31:00,
2013-10-29 04:36:00,37.3,34.1,30.34,NW,321,0.0,0.0,88,0.00,,SKC,0.00,VWS V14.01,2013-10-29 08:36:00,
2013-10-29 04:42:00,37.3,34.1,30.34,NW,321,0.0,0.0,88,0.00,,SKC,0.00,VWS V14.01,2013-10-29 08:42:00,
2013-10-29 04:47:00,37.2,33.7,30.34,NW,321,0.0,0.0,87,0.00,,SKC,0.00,VWS V14.01,2013-10-29 08:47:00,
2013-10-29 04:52:00,37.0,33.5,30.34,NW,321,0.0,0.0,87,0.00,,SKC,0.00,VWS V14.01,2013-10-29 08:52:00,
2013-10-29 04:57:00,37.0,33.8,30.34,NW,321,0.0,0.0,88,0.00,,SKC,0.00,VWS V14.01,2013-10-29 08:57:00,
2013-10-29 05:02:00,36.9,33.7,30.34,NW,321,0.0,0.0,88,0.00,,SKC,0.00,VWS V14.01,2013-10-29 09:02:00,
2013-10-29 05:07:00,36.8,33.6,30.33,NW,321,0.0,0.0,88,0.00,,SKC,0.00,VWS V14.01,2013-10-29 09:07:00,
2013-10-29 05:12:00,36.5,33.3,30.33,NW,321,0.0,0.0,88,0.00,,SKC,0.00,VWS V14.01,2013-10-29 09:12:00,
2013-10-29 05:17:00,36.3,33.4,30.33,NW,321,0.0,0.0,89,0.00,,SKC,0.00,VWS V14.01,2013-10-29 09:17:00,
2013-10-29 05:22:00,36.2,33.3,30.33,NW,321,0.0,0.0,89,0.00,,SKC,0.00,VWS V14.01,2013-10-29 09:22:00,
2013-10-29 05:27:00,35.9,33.0,30.33,NW,321,0.0,0.0,89,0.00,,SKC,0.00,VWS V14.01,2013-10-29 09:27:00,
2013-10-29 05:32:00,35.9,33.3,30.33,NW,321,0.0,0.0,90,0.00,,SKC,0.00,VWS V14.01,2013-10-29 09:32:00,
2013-10-29 05:37:00,35.9,33.3,30.34,NW,321,0.0,0.0,90,0.00,,SKC,0.00,VWS V14.01,2013-10-29 09:37:00,
2013-10-29 05:42:00,35.9,33.5,30.34,NW,321,0.0,0.0,91,0.00,,SKC,0.00,VWS V14.01,2013-10-29 09:42:00,
2013-10-29 05:47:00,35.9,33.5,30.34,NW,321,0.0,0.0,91,0.00,,SKC,0.00,VWS V14.01,2013-10-29 09:47:00,
2013-10-29 05:52:00,35.9,33.5,30.35,NW,321,0.0,0.0,91,0.00,,SKC,0.00,VWS V14.01,2013-10-29 09:52:00,
2013-10-29 05:57:00,35.9,33.5,30.35,NW,321,0.0,0.0,91,0.00,,SKC,0.00,VWS V14.01,2013-10-29 09:57:00,
2013-10-29 06:02:00,35.8,33.7,30.35,NW,321,0.0,0.0,92,0.00,,SKC,0.00,VWS V14.01,2013-10-29 10:02:00,
2013-10-29 06:07:00,35.8,33.7,30.36,NW,321,0.0,0.0,92,0.00,,SKC,0.00,VWS V14.01,2013-10-29 10:07:00,
2013-10-29 06:12:00,35.9,33.8,30.36,NW,321,0.0,0.0,92,0.00,,SKC,0.00,VWS V14.01,2013-10-29 10:12:00,
2013-10-29 06:17:00,35.9,33.8,30.36,NW,321,0.0,0.0,92,0.00,,SKC,0.00,VWS V14.01,2013-10-29 10:17:00,
2013-10-29 06:22:00,35.9,33.8,30.37,NW,321,0.0,0.0,92,0.00,,SKC,0.00,VWS V14.01,2013-10-29 10:22:00,
2013-10-29 06:27:00,35.8,33.7,30.37,NW,321,0.0,0.0,92,0.00,,SKC,0.00,VWS V14.01,2013-10-29 10:27:00,
2013-10-29 06:33:00,35.6,33.8,30.37,NW,321,0.0,0.0,93,0.00,,SKC,0.00,VWS V14.01,2013-10-29 10:33:00,
2013-10-29 06:38:00,35.8,34.0,30.37,NW,321,0.0,0.0,93,0.00,,SKC,0.00,VWS V14.01,2013-10-29 10:38:00,
2013-10-29 06:43:00,35.8,34.0,30.37,NW,321,0.0,0.0,93,0.00,,SKC,0.00,VWS V14.01,2013-10-29 10:43:00,
2013-10-29 06:48:00,35.5,33.7,30.37,NW,321,0.0,0.0,93,0.00,,SKC,0.00,VWS V14.01,2013-10-29 10:48:00,
2013-10-29 06:53:00,35.3,33.5,30.37,NW,321,0.0,0.0,93,0.00,,SKC,0.00,VWS V14.01,2013-10-29 10:53:00,
2013-10-29 06:58:00,35.5,34.0,30.37,NW,321,0.0,0.0,94,0.00,,SKC,0.00,VWS V14.01,2013-10-29 10:58:00,
2013-10-29 07:03:00,35.3,33.8,30.37,NW,321,0.0,0.0,94,0.00,,SKC,0.00,VWS V14.01,2013-10-29 11:03:00,
2013-10-29 07:08:00,35.3,33.8,30.37,NW,321,0.0,0.0,94,0.00,,SKC,0.00,VWS V14.01,2013-10-29 11:08:00,
2013-10-29 07:13:00,35.2,33.7,30.37,NW,321,0.0,0.0,94,0.00,,SKC,0.00,VWS V14.01,2013-10-29 11:13:00,
2013-10-29 07:18:00,35.3,33.8,30.37,NW,321,0.0,0.0,94,0.00,,SKC,0.00,VWS V14.01,2013-10-29 11:18:00,
2013-10-29 07:23:00,35.2,33.7,30.37,NW,321,0.0,0.0,94,0.00,,SKC,0.00,VWS V14.01,2013-10-29 11:23:00,
2013-10-29 07:28:00,35.2,33.7,30.37,NW,321,0.0,0.0,94,0.00,,SKC,0.00,VWS V14.01,2013-10-29 11:28:00,
2013-10-29 07:33:00,35.3,34.0,30.37,NW,321,0.0,0.0,95,0.00,,SKC,0.00,VWS V14.01,2013-10-29 11:33:00,
2013-10-29 07:38:00,35.2,33.9,30.37,NW,321,0.0,0.0,95,0.00,,SKC,0.00,VWS V14.01,2013-10-29 11:38:00,
2013-10-29 07:43:00,35.0,33.7,30.37,NW,321,0.0,0.0,95,0.00,,SKC,0.00,VWS V14.01,2013-10-29 11:43:00,
2013-10-29 07:48:00,34.9,33.6,30.37,NW,321,0.0,0.0,95,0.00,,SKC,0.00,VWS V14.01,2013-10-29 11:48:00,
2013-10-29 07:53:00,34.7,33.4,30.37,NW,321,0.0,0.0,95,0.00,,SKC,0.00,VWS V14.01,2013-10-29 11:53:00,
2013-10-29 07:58:00,34.6,33.3,30.37,NW,321,0.0,0.0,95,0.00,,SKC,0.00,VWS V14.01,2013-10-29 11:58:00,
2013-10-29 08:04:00,34.4,33.1,30.37,NW,321,0.0,0.0,95,0.00,,SKC,0.00,VWS V14.01,2013-10-29 12:04:00,
2013-10-29 08:09:00,34.6,33.3,30.38,NW,321,0.0,0.0,95,0.00,,SKC,0.00,VWS V14.01,2013-10-29 12:09:00,
2013-10-29 08:14:00,34.7,33.4,30.38,NW,321,0.0,0.0,95,0.00,,SKC,0.00,VWS V14.01,2013-10-29 12:14:00,
2013-10-29 08:19:00,34.7,33.4,30.38,NW,321,0.0,0.0,95,0.00,,SKC,0.00,VWS V14.01,2013-10-29 12:19:00,
2013-10-29 08:24:00,34.6,33.3,30.37,NW,321,0.0,0.0,95,0.00,,SKC,0.00,VWS V14.01,2013-10-29 12:24:00,
2013-10-29 08:29:00,34.7,33.7,30.37,NW,321,0.0,0.0,96,0.00,,SKC,0.00,VWS V14.01,2013-10-29 12:29:00,
2013-10-29 08:34:00,35.0,34.0,30.37,NW,321,0.0,0.0,96,0.00,,SKC,0.00,VWS V14.01,2013-10-29 12:34:00,
2013-10-29 08:39:00,35.3,34.3,30.37,NW,321,0.0,0.0,96,0.00,,SKC,0.00,VWS V14.01,2013-10-29 12:39:00,
2013-10-29 08:44:00,35.6,34.6,30.37,NW,321,0.0,0.0,96,0.00,,SKC,0.00,VWS V14.01,2013-10-29 12:44:00,
2013-10-29 08:49:00,35.6,34.6,30.37,NW,321,0.0,0.0,96,0.00,,SKC,0.00,VWS V14.01,2013-10-29 12:49:00,
2013-10-29 08:54:00,35.6,34.6,30.37,NW,321,0.0,0.0,96,0.00,,SKC,0.00,VWS V14.01,2013-10-29 12:54:00,
2013-10-29 08:59:00,35.9,34.9,30.37,NW,321,0.0,0.0,96,0.00,,SKC,0.00,VWS V14.01,2013-10-29 12:59:00,
2013-10-29 09:04:00,36.2,35.2,30.37,NW,321,0.0,0.0,96,0.00,,SKC,0.00,VWS V14.01,2013-10-29 13:04:00,
2013-10-29 09:09:00,36.3,35.3,30.38,NW,321,0.0,0.0,96,0.00,,SKC,0.00,VWS V14.01,2013-10-29 13:09:00,
2013-10-29 09:15:00,36.6,35.6,30.38,NW,321,0.0,0.0,96,0.00,,SKC,0.00,VWS V14.01,2013-10-29 13:15:00,
2013-10-29 09:20:00,36.9,35.9,30.38,NW,321,0.0,0.0,96,0.00,,SKC,0.00,VWS V14.01,2013-10-29 13:20:00,
2013-10-29 09:25:00,37.0,36.0,30.38,NW,321,0.0,0.0,96,0.00,,SKC,0.00,VWS V14.01,2013-10-29 13:25:00,
2013-10-29 09:30:00,37.3,36.3,30.38,NW,321,0.0,0.0,96,0.00,,SKC,0.00,VWS V14.01,2013-10-29 13:30:00,
2013-10-29 09:35:00,37.6,36.8,30.38,NW,321,0.0,0.0,97,0.00,,SKC,0.00,VWS V14.01,2013-10-29 13:35:00,
2013-10-29 09:40:00,37.9,37.1,30.38,NW,321,0.0,0.0,97,0.00,,SKC,0.00,VWS V14.01,2013-10-29 13:40:00,
2013-10-29 09:45:00,38.2,37.2,30.38,NW,321,0.0,0.0,96,0.00,,SKC,0.00,VWS V14.01,2013-10-29 13:45:00,
2013-10-29 09:50:00,38.5,37.5,30.38,NW,321,0.0,0.0,96,0.00,,SKC,0.00,VWS V14.01,2013-10-29 13:50:00,
2013-10-29 09:55:00,38.8,37.8,30.39,NW,321,0.0,0.0,96,0.00,,SKC,0.00,VWS V14.01,2013-10-29 13:55:00,
2013-10-29 10:00:00,39.2,38.2,30.39,NW,321,0.0,0.0,96,0.00,,SKC,0.00,VWS V14.01,2013-10-29 14:00:00,
2013-10-29 10:05:00,39.5,38.5,30.39,NW,321,0.0,0.0,96,0.00,,SKC,0.00,VWS V14.01,2013-10-29 14:05:00,
2013-10-29 10:10:00,39.8,38.5,30.40,NW,321,0.0,0.0,95,0.00,,SKC,0.00,VWS V14.01,2013-10-29 14:10:00,
2013-10-29 10:15:00,40.1,38.5,30.40,NW,321,0.0,0.0,94,0.00,,SKC,0.00,VWS V14.01,2013-10-29 14:15:00,
2013-10-29 10:20:00,40.5,38.9,30.40,NW,321,0.0,0.0,94,0.00,,SKC,0.00,VWS V14.01,2013-10-29 14:20:00,
2013-10-29 10:25:00,40.8,38.9,30.39,NW,321,0.0,0.0,93,0.00,,SKC,0.00,VWS V14.01,2013-10-29 14:25:00,
2013-10-29 10:30:00,41.5,39.3,30.39,NW,321,0.0,0.0,92,0.00,,SKC,0.00,VWS V14.01,2013-10-29 14:30:00,
2013-10-29 10:35:00,41.9,39.5,30.39,NW,321,0.0,0.0,91,0.00,,SKC,0.00,VWS V14.01,2013-10-29 14:35:00,
2013-10-29 10:40:00,42.5,39.5,30.39,NW,321,0.0,0.0,89,0.00,,SKC,0.00,VWS V14.01,2013-10-29 14:40:00,
2013-10-29 10:46:00,42.9,39.3,30.39,NW,321,0.0,1.0,87,0.00,,SKC,0.00,VWS V14.01,2013-10-29 14:46:00,
2013-10-29 10:51:00,43.3,39.4,30.39,NW,321,0.0,1.0,86,0.00,,SKC,0.00,VWS V14.01,2013-10-29 14:51:00,
2013-10-29 10:56:00,43.8,39.3,30.38,NW,321,0.0,1.0,84,0.00,,SKC,0.00,VWS V14.01,2013-10-29 14:56:00,
2013-10-29 11:01:00,44.5,40.0,30.38,NW,321,0.0,1.0,84,0.00,,SKC,0.00,VWS V14.01,2013-10-29 15:01:00,
2013-10-29 11:06:00,44.6,39.5,30.38,NW,321,0.0,1.0,82,0.00,,SKC,0.00,VWS V14.01,2013-10-29 15:06:00,
2013-10-29 11:11:00,44.9,39.8,30.37,NW,322,0.0,1.0,82,0.00,,SKC,0.00,VWS V14.01,2013-10-29 15:11:00,
2013-10-29 11:16:00,45.2,39.7,30.37,East,89,0.0,2.0,81,0.00,,SKC,0.00,VWS V14.01,2013-10-29 15:16:00,
2013-10-29 11:21:00,45.7,40.2,30.37,East,93,0.0,3.0,81,0.00,,SKC,0.00,VWS V14.01,2013-10-29 15:21:00,
2013-10-29 11:26:00,45.8,40.0,30.38,East,93,0.0,3.0,80,0.00,,SKC,0.00,VWS V14.01,2013-10-29 15:26:00,
2013-10-29 11:31:00,46.1,40.0,30.38,East,93,0.0,3.0,79,0.00,,SKC,0.00,VWS V14.01,2013-10-29 15:31:00,
2013-10-29 11:36:00,46.5,40.3,30.38,East,93,0.0,3.0,79,0.00,,SKC,0.00,VWS V14.01,2013-10-29 15:36:00,
2013-10-29 11:41:00,47.0,40.5,30.37,East,93,0.0,2.0,78,0.00,,SKC,0.00,VWS V14.01,2013-10-29 15:41:00,
2013-10-29 11:46:00,47.3,40.5,30.37,East,93,0.0,2.0,77,0.00,,SKC,0.00,VWS V14.01,2013-10-29 15:46:00,
2013-10-29 11:51:00,47.6,40.8,30.37,SE,125,0.0,3.0,77,0.00,,SKC,0.00,VWS V14.01,2013-10-29 15:51:00,
2013-10-29 11:56:00,48.0,40.8,30.37,SE,124,0.0,3.0,76,0.00,,SKC,0.00,VWS V14.01,2013-10-29 15:56:00,
2013-10-29 12:01:00,48.5,41.3,30.37,SE,124,0.0,3.0,76,0.00,,SKC,0.00,VWS V14.01,2013-10-29 16:01:00,
2013-10-29 12:07:00,48.6,41.0,30.37,ESE,120,0.0,3.0,75,0.00,,SKC,0.00,VWS V14.01,2013-10-29 16:07:00,
2013-10-29 12:12:00,48.9,41.3,30.37,ESE,120,0.0,3.0,75,0.00,,SKC,0.00,VWS V14.01,2013-10-29 16:12:00,
2013-10-29 12:17:00,49.1,40.8,30.37,ESE,122,0.0,3.0,73,0.00,,SKC,0.00,VWS V14.01,2013-10-29 16:17:00,
2013-10-29 12:22:00,49.2,40.6,30.37,ESE,122,1.0,3.0,72,0.00,,SKC,0.00,VWS V14.01,2013-10-29 16:22:00,
2013-10-29 12:27:00,49.5,41.2,30.37,ESE,122,0.0,3.0,73,0.00,,SKC,0.00,VWS V14.01,2013-10-29 16:27:00,
2013-10-29 12:32:00,49.6,40.6,30.37,ESE,121,0.0,3.0,71,0.00,,SKC,0.00,VWS V14.01,2013-10-29 16:32:00,
2013-10-29 12:37:00,50.1,40.7,30.37,ESE,119,0.0,3.0,70,0.00,,SKC,0.00,VWS V14.01,2013-10-29 16:37:00,
2013-10-29 12:42:00,50.2,40.8,30.37,ESE,120,0.0,3.0,70,0.00,,SKC,0.00,VWS V14.01,2013-10-29 16:42:00,
2013-10-29 12:47:00,50.7,41.3,30.37,ESE,120,0.0,3.0,70,0.00,,SKC,0.00,VWS V14.01,2013-10-29 16:47:00,
2013-10-29 12:52:00,50.7,40.9,30.36,ESE,121,0.0,3.0,69,0.00,,SKC,0.00,VWS V14.01,2013-10-29 16:52:00,
2013-10-29 12:58:00,50.8,40.6,30.36,ESE,120,0.0,3.0,68,0.00,,SKC,0.00,VWS V14.01,2013-10-29 16:58:00,
2013-10-29 13:03:00,51.0,40.8,30.36,SE,136,0.0,3.0,68,0.00,,SKC,0.00,VWS V14.01,2013-10-29 17:03:00,
2013-10-29 13:08:00,51.3,41.5,30.35,SE,136,0.0,0.0,69,0.00,,SKC,0.00,VWS V14.01,2013-10-29 17:08:00,
2013-10-29 13:13:00,51.6,41.0,30.35,SE,130,0.0,2.0,67,0.00,,SKC,0.00,VWS V14.01,2013-10-29 17:13:00,
2013-10-29 13:18:00,51.7,40.7,30.35,SE,129,0.0,2.0,66,0.00,,SKC,0.00,VWS V14.01,2013-10-29 17:18:00,
2013-10-29 13:23:00,52.0,41.0,30.33,SE,129,0.0,2.0,66,0.00,,SKC,0.00,VWS V14.01,2013-10-29 17:23:00,
2013-10-29 13:28:00,52.3,40.9,30.33,SE,129,0.0,2.0,65,0.00,,SKC,0.00,VWS V14.01,2013-10-29 17:28:00,
2013-10-29 13:33:00,52.6,41.2,30.33,SE,128,0.0,2.0,65,0.00,,SKC,0.00,VWS V14.01,2013-10-29 17:33:00,
2013-10-29 13:38:00,52.8,41.4,30.33,SE,127,0.0,1.0,65,0.00,,SKC,0.00,VWS V14.01,2013-10-29 17:38:00,
2013-10-29 13:43:00,52.9,40.7,30.33,ESE,113,0.0,2.0,63,0.00,,SKC,0.00,VWS V14.01,2013-10-29 17:43:00,
2013-10-29 13:48:00,53.2,41.0,30.33,ESE,113,0.0,2.0,63,0.00,,SKC,0.00,VWS V14.01,2013-10-29 17:48:00,
2013-10-29 13:53:00,53.5,41.2,30.32,ESE,117,2.0,2.0,63,0.00,,SKC,0.00,VWS V14.01,2013-10-29 17:53:00,
2013-10-29 13:58:00,53.6,40.1,30.32,SSE,156,1.0,2.0,60,0.00,,SKC,0.00,VWS V14.01,2013-10-29 17:58:00,
2013-10-29 14:03:00,53.8,39.8,30.32,SE,132,0.0,4.0,59,0.00,,SKC,0.00,VWS V14.01,2013-10-29 18:03:00,
2013-10-29 14:08:00,53.9,40.3,30.31,SE,143,0.0,1.0,60,0.00,,SKC,0.00,VWS V14.01,2013-10-29 18:08:00,
2013-10-29 14:13:00,54.1,40.1,30.31,SE,144,2.0,5.0,59,0.00,,SKC,0.00,VWS V14.01,2013-10-29 18:13:00,
2013-10-29 14:18:00,54.1,39.7,30.31,ESE,122,0.0,5.0,58,0.00,,SKC,0.00,VWS V14.01,2013-10-29 18:18:00,
2013-10-29 14:23:00,54.1,40.1,30.29,SSE,151,2.0,6.0,59,0.00,,SKC,0.00,VWS V14.01,2013-10-29 18:23:00,
2013-10-29 14:28:00,54.2,40.2,30.29,SE,131,1.0,6.0,59,0.00,,SKC,0.00,VWS V14.01,2013-10-29 18:28:00,
2013-10-29 14:34:00,54.2,40.2,30.29,SE,127,1.0,6.0,59,0.00,,SKC,0.00,VWS V14.01,2013-10-29 18:34:00,
2013-10-29 14:39:00,54.2,40.2,30.28,ENE,75,0.0,2.0,59,0.00,,SKC,0.00,VWS V14.01,2013-10-29 18:39:00,
2013-10-29 14:44:00,54.4,40.4,30.28,SE,136,0.0,3.0,59,0.00,,SKC,0.00,VWS V14.01,2013-10-29 18:44:00,
2013-10-29 14:49:00,54.4,40.4,30.28,SE,128,0.0,3.0,59,0.00,,SKC,0.00,VWS V14.01,2013-10-29 18:49:00,
2013-10-29 14:54:00,54.4,40.0,30.27,ESE,113,1.0,4.0,58,0.00,,SKC,0.00,VWS V14.01,2013-10-29 18:54:00,
2013-10-29 14:59:00,54.5,40.5,30.27,SE,127,0.0,5.0,59,0.00,,SKC,0.00,VWS V14.01,2013-10-29 18:59:00,
2013-10-29 15:04:00,54.7,40.2,30.27,SE,133,0.0,5.0,58,0.00,,SKC,0.00,VWS V14.01,2013-10-29 19:04:00,
2013-10-29 15:09:00,54.7,40.2,30.27,SE,131,1.0,5.0,58,0.00,,SKC,0.00,VWS V14.01,2013-10-29 19:09:00,
2013-10-29 15:14:00,54.8,40.3,30.27,SE,132,1.0,5.0,58,0.00,,SKC,0.00,VWS V14.01,2013-10-29 19:14:00,
2013-10-29 15:19:00,55.0,40.5,30.27,SE,127,0.0,5.0,58,0.00,,SKC,0.00,VWS V14.01,2013-10-29 19:19:00,
2013-10-29 15:24:00,55.0,40.1,30.26,ESE,111,2.0,6.0,57,0.00,,SKC,0.00,VWS V14.01,2013-10-29 19:24:00,
2013-10-29 15:29:00,55.0,40.1,30.26,SE,124,1.0,6.0,57,0.00,,SKC,0.00,VWS V14.01,2013-10-29 19:29:00,
2013-10-29 15:34:00,55.1,40.2,30.26,SE,131,0.0,6.0,57,0.00,,SKC,0.00,VWS V14.01,2013-10-29 19:34:00,
2013-10-29 15:39:00,55.3,40.3,30.26,SE,134,0.0,3.0,57,0.00,,SKC,0.00,VWS V14.01,2013-10-29 19:39:00,
2013-10-29 15:44:00,55.6,40.6,30.26,SE,134,0.0,3.0,57,0.00,,SKC,0.00,VWS V14.01,2013-10-29 19:44:00,
2013-10-29 15:49:00,55.9,40.5,30.26,SE,146,3.0,4.0,56,0.00,,SKC,0.00,VWS V14.01,2013-10-29 19:49:00,
2013-10-29 15:55:00,56.2,40.7,30.27,SE,137,0.0,4.0,56,0.00,,SKC,0.00,VWS V14.01,2013-10-29 19:55:00,
2013-10-29 16:00:00,56.3,40.4,30.27,SE,131,0.0,4.0,55,0.00,,SKC,0.00,VWS V14.01,2013-10-29 20:00:00,
2013-10-29 16:05:00,56.3,40.4,30.27,ENE,72,0.0,4.0,55,0.00,,SKC,0.00,VWS V14.01,2013-10-29 20:05:00,
2013-10-29 16:10:00,56.2,40.3,30.27,SE,128,1.0,3.0,55,0.00,,SKC,0.00,VWS V14.01,2013-10-29 20:10:00,
2013-10-29 16:15:00,56.2,40.7,30.27,ESE,113,0.0,3.0,56,0.00,,SKC,0.00,VWS V14.01,2013-10-29 20:15:00,
2013-10-29 16:20:00,56.3,40.4,30.27,SE,127,0.0,4.0,55,0.00,,SKC,0.00,VWS V14.01,2013-10-29 20:20:00,
2013-10-29 16:25:00,56.5,41.0,30.26,ESE,122,0.0,4.0,56,0.00,,SKC,0.00,VWS V14.01,2013-10-29 20:25:00,
2013-10-29 16:30:00,56.5,41.0,30.26,ESE,120,6.0,6.0,56,0.00,,SKC,0.00,VWS V14.01,2013-10-29 20:30:00,
2013-10-29 16:35:00,56.5,41.0,30.26,SE,143,1.0,6.0,56,0.00,,SKC,0.00,VWS V14.01,2013-10-29 20:35:00,
2013-10-29 16:40:00,56.7,40.7,30.25,ESE,112,2.0,4.0,55,0.00,,SKC,0.00,VWS V14.01,2013-10-29 20:40:00,
2013-10-29 16:45:00,56.7,41.2,30.25,ESE,112,0.0,4.0,56,0.00,,SKC,0.00,VWS V14.01,2013-10-29 20:45:00,
2013-10-29 16:50:00,56.7,40.7,30.25,SE,132,0.0,4.0,55,0.00,,SKC,0.00,VWS V14.01,2013-10-29 20:50:00,
2013-10-29 16:55:00,56.9,40.9,30.25,ESE,122,0.0,4.0,55,0.00,,SKC,0.00,VWS V14.01,2013-10-29 20:55:00,
2013-10-29 17:00:00,56.9,40.9,30.25,East,80,0.0,4.0,55,0.00,,SKC,0.00,VWS V14.01,2013-10-29 21:00:00,
2013-10-29 17:05:00,56.7,41.2,30.25,SE,131,0.0,4.0,56,0.00,,SKC,0.00,VWS V14.01,2013-10-29 21:05:00,
2013-10-29 17:10:00,56.5,41.0,30.25,SE,124,1.0,1.0,56,0.00,,SKC,0.00,VWS V14.01,2013-10-29 21:10:00,
2013-10-29 17:15:00,56.3,40.8,30.25,SE,137,0.0,4.0,56,0.00,,SKC,0.00,VWS V14.01,2013-10-29 21:15:00,
2013-10-29 17:20:00,56.2,40.7,30.25,SE,130,1.0,4.0,56,0.00,,SKC,0.00,VWS V14.01,2013-10-29 21:20:00,
2013-10-29 17:26:00,56.2,41.2,30.25,SE,129,0.0,4.0,57,0.00,,SKC,0.00,VWS V14.01,2013-10-29 21:26:00,
2013-10-29 17:31:00,56.2,40.7,30.25,SE,129,0.0,4.0,56,0.00,,SKC,0.00,VWS V14.01,2013-10-29 21:31:00,
2013-10-29 17:36:00,56.0,41.0,30.25,SE,129,0.0,4.0,57,0.00,,SKC,0.00,VWS V14.01,2013-10-29 21:36:00,
2013-10-29 17:41:00,56.0,41.0,30.25,SE,129,0.0,0.0,57,0.00,,SKC,0.00,VWS V14.01,2013-10-29 21:41:00,
2013-10-29 17:46:00,56.0,41.0,30.25,SE,129,0.0,1.0,57,0.00,,SKC,0.00,VWS V14.01,2013-10-29 21:46:00,
2013-10-29 17:51:00,56.0,41.5,30.25,SE,129,1.0,1.0,58,0.00,,SKC,0.00,VWS V14.01,2013-10-29 21:51:00,
2013-10-29 17:56:00,55.9,41.3,30.25,ESE,122,0.0,4.0,58,0.00,,SKC,0.00,VWS V14.01,2013-10-29 21:56:00,
2013-10-29 18:01:00,55.7,41.2,30.25,ESE,122,0.0,4.0,58,0.00,,SKC,0.00,VWS V14.01,2013-10-29 22:01:00,
2013-10-29 18:06:00,55.7,41.2,30.25,ESE,120,0.0,4.0,58,0.00,,SKC,0.00,VWS V14.01,2013-10-29 22:06:00,
2013-10-29 18:11:00,55.6,41.5,30.25,ESE,110,1.0,2.0,59,0.00,,SKC,0.00,VWS V14.01,2013-10-29 22:11:00,
2013-10-29 18:16:00,55.6,41.5,30.25,ESE,121,0.0,3.0,59,0.00,,SKC,0.00,VWS V14.01,2013-10-29 22:16:00,
2013-10-29 18:21:00,55.4,41.3,30.25,ESE,120,0.0,3.0,59,0.00,,SKC,0.00,VWS V14.01,2013-10-29 22:21:00,
2013-10-29 18:26:00,55.3,41.2,30.25,ESE,120,0.0,3.0,59,0.00,,SKC,0.00,VWS V14.01,2013-10-29 22:26:00,
2013-10-29 18:31:00,55.1,41.5,30.25,ESE,121,0.0,3.0,60,0.00,,SKC,0.00,VWS V14.01,2013-10-29 22:31:00,
2013-10-29 18:36:00,55.0,41.4,30.25,ESE,120,0.0,3.0,60,0.00,,SKC,0.00,VWS V14.01,2013-10-29 22:36:00,
2013-10-29 18:41:00,54.8,41.6,30.25,ESE,121,0.0,1.0,61,0.00,,SKC,0.00,VWS V14.01,2013-10-29 22:41:00,
2013-10-29 18:46:00,54.7,41.5,30.25,ESE,121,0.0,2.0,61,0.00,,SKC,0.00,VWS V14.01,2013-10-29 22:46:00,
2013-10-29 18:52:00,54.5,41.3,30.24,ESE,120,0.0,2.0,61,0.00,,SKC,0.00,VWS V14.01,2013-10-29 22:52:00,
2013-10-29 18:57:00,54.4,41.7,30.24,ESE,121,0.0,2.0,62,0.00,,SKC,0.00,VWS V14.01,2013-10-29 22:57:00,
2013-10-29 19:02:00,54.2,41.5,30.24,ESE,115,0.0,2.0,62,0.00,,SKC,0.00,VWS V14.01,2013-10-29 23:02:00,
2013-10-29 19:07:00,54.1,41.4,30.24,ESE,105,0.0,4.0,62,0.00,,SKC,0.00,VWS V14.01,2013-10-29 23:07:00,
2013-10-29 19:12:00,54.1,41.4,30.24,SE,131,0.0,4.0,62,0.00,,SKC,0.00,VWS V14.01,2013-10-29 23:12:00,
2013-10-29 19:17:00,53.9,41.6,30.24,ESE,115,0.0,5.0,63,0.00,,SKC,0.00,VWS V14.01,2013-10-29 23:17:00,
2013-10-29 19:22:00,53.9,41.2,30.23,East,93,0.0,6.0,62,0.00,,SKC,0.00,VWS V14.01,2013-10-29 23:22:00,
2013-10-29 19:27:00,53.9,41.6,30.23,ESE,122,1.0,6.0,63,0.00,,SKC,0.00,VWS V14.01,2013-10-29 23:27:00,
2013-10-29 19:32:00,53.9,41.6,30.23,SE,125,1.0,6.0,63,0.00,,SKC,0.00,VWS V14.01,2013-10-29 23:32:00,
2013-10-29 19:37:00,53.8,41.5,30.23,East,81,0.0,6.0,63,0.00,,SKC,0.00,VWS V14.01,2013-10-29 23:37:00,
2013-10-29 19:42:00,53.8,41.5,30.23,SE,134,0.0,5.0,63,0.00,,SKC,0.00,VWS V14.01,2013-10-29 23:42:00,
2013-10-29 19:47:00,53.8,41.5,30.23,SE,128,0.0,5.0,63,0.00,,SKC,0.00,VWS V14.01,2013-10-29 23:47:00,
2013-10-29 19:53:00,53.8,41.5,30.24,ESE,103,0.0,5.0,63,0.00,,SKC,0.00,VWS V14.01,2013-10-29 23:53:00,
2013-10-29 19:58:00,53.8,41.9,30.24,East,98,0.0,5.0,64,0.00,,SKC,0.00,VWS V14.01,2013-10-29 23:58:00,
2013-10-29 20:03:00,53.6,41.7,30.24,ESE,108,0.0,5.0,64,0.00,,SKC,0.00,VWS V14.01,2013-10-30 00:03:00,
2013-10-29 20:08:00,53.6,41.7,30.24,ESE,122,0.0,0.0,64,0.00,,SKC,0.00,VWS V14.01,2013-10-30 00:08:00,
2013-10-29 20:13:00,53.6,41.7,30.24,ESE,121,0.0,1.0,64,0.00,,SKC,0.00,VWS V14.01,2013-10-30 00:13:00,
2013-10-29 20:18:00,53.5,41.6,30.24,ESE,120,0.0,1.0,64,0.00,,SKC,0.00,VWS V14.01,2013-10-30 00:18:00,
2013-10-29 20:23:00,53.5,42.0,30.24,ESE,121,1.0,1.0,65,0.00,,SKC,0.00,VWS V14.01,2013-10-30 00:23:00,
2013-10-29 20:28:00,53.3,41.8,30.24,ESE,116,0.0,2.0,65,0.00,,SKC,0.00,VWS V14.01,2013-10-30 00:28:00,
2013-10-29 20:33:00,53.3,41.8,30.24,ESE,117,0.0,2.0,65,0.00,,SKC,0.00,VWS V14.01,2013-10-30 00:33:00,
2013-10-29 20:38:00,53.2,41.8,30.24,ESE,117,0.0,1.0,65,0.00,,SKC,0.00,VWS V14.01,2013-10-30 00:38:00,
2013-10-29 20:43:00,53.2,41.8,30.24,ESE,117,0.0,1.0,65,0.00,,SKC,0.00,VWS V14.01,2013-10-30 00:43:00,
2013-10-29 20:48:00,53.2,41.8,30.24,ESE,117,0.0,1.0,65,0.00,,SKC,0.00,VWS V14.01,2013-10-30 00:48:00,
2013-10-29 20:53:00,53.1,42.1,30.23,East,101,0.0,2.0,66,0.00,,SKC,0.00,VWS V14.01,2013-10-30 00:53:00,
2013-10-29 20:58:00,52.9,41.9,30.23,ESE,116,0.0,4.0,66,0.00,,SKC,0.00,VWS V14.01,2013-10-30 00:58:00,
2013-10-29 21:04:00,52.9,41.9,30.23,ESE,116,0.0,4.0,66,0.00,,SKC,0.00,VWS V14.01,2013-10-30 01:04:00,
2013-10-29 21:09:00,52.8,41.8,30.23,ESE,116,0.0,0.0,66,0.00,,SKC,0.00,VWS V14.01,2013-10-30 01:09:00,
2013-10-29 21:14:00,52.8,41.8,30.23,ESE,116,0.0,3.0,66,0.00,,SKC,0.00,VWS V14.01,2013-10-30 01:14:00,
2013-10-29 21:19:00,52.8,41.8,30.23,ESE,115,0.0,3.0,66,0.00,,SKC,0.00,VWS V14.01,2013-10-30 01:19:00,
2013-10-29 21:24:00,52.8,41.8,30.24,SE,129,0.0,3.0,66,0.00,,SKC,0.00,VWS V14.01,2013-10-30 01:24:00,
2013-10-29 21:29:00,52.8,41.8,30.24,SE,129,0.0,3.0,66,0.00,,SKC,0.00,VWS V14.01,2013-10-30 01:29:00,
2013-10-29 21:34:00,52.6,41.6,30.24,SE,129,3.0,3.0,66,0.00,,SKC,0.00,VWS V14.01,2013-10-30 01:34:00,
2013-10-29 21:39:00,52.6,41.6,30.23,SE,124,0.0,3.0,66,0.00,,SKC,0.00,VWS V14.01,2013-10-30 01:39:00,
2013-10-29 21:44:00,52.6,42.0,30.23,SE,129,0.0,3.0,67,0.00,,SKC,0.00,VWS V14.01,2013-10-30 01:44:00,
2013-10-29 21:49:00,52.6,42.0,30.23,SE,143,0.0,4.0,67,0.00,,SKC,0.00,VWS V14.01,2013-10-30 01:49:00,
2013-10-29 21:54:00,52.6,42.0,30.24,SSE,153,1.0,4.0,67,0.00,,SKC,0.00,VWS V14.01,2013-10-30 01:54:00,
2013-10-29 21:59:00,52.5,41.9,30.24,SE,144,0.0,4.0,67,0.00,,SKC,0.00,VWS V14.01,2013-10-30 01:59:00,
2013-10-29 22:05:00,52.5,41.9,30.24,SE,143,1.0,4.0,67,0.00,,SKC,0.00,VWS V14.01,2013-10-30 02:05:00,
2013-10-29 22:10:00,52.5,42.3,30.24,SE,143,0.0,0.0,68,0.00,,SKC,0.00,VWS V14.01,2013-10-30 02:10:00,
2013-10-29 22:15:00,52.3,42.1,30.24,SE,131,4.0,6.0,68,0.00,,SKC,0.00,VWS V14.01,2013-10-30 02:15:00,
2013-10-29 22:20:00,52.3,42.1,30.24,SE,133,0.0,6.0,68,0.00,,SKC,0.00,VWS V14.01,2013-10-30 02:20:00,
2013-10-29 22:25:00,52.2,42.3,30.23,SSE,148,0.0,6.0,69,0.00,,SKC,0.00,VWS V14.01,2013-10-30 02:25:00,
2013-10-29 22:30:00,52.0,42.2,30.23,SE,136,3.0,6.0,69,0.00,,SKC,0.00,VWS V14.01,2013-10-30 02:30:00,
2013-10-29 22:35:00,52.0,42.5,30.23,SE,126,1.0,6.0,70,0.00,,SKC,0.00,VWS V14.01,2013-10-30 02:35:00,
2013-10-29 22:40:00,51.9,42.4,30.23,SE,143,2.0,3.0,70,0.00,,SKC,0.00,VWS V14.01,2013-10-30 02:40:00,
2013-10-29 22:45:00,51.9,42.8,30.23,SE,145,3.0,3.0,71,0.00,,SKC,0.00,VWS V14.01,2013-10-30 02:45:00,
2013-10-29 22:50:00,51.7,42.6,30.23,SE,139,0.0,4.0,71,0.00,,SKC,0.00,VWS V14.01,2013-10-30 02:50:00,
2013-10-29 22:55:00,51.7,42.6,30.23,ESE,123,0.0,4.0,71,0.00,,SKC,0.00,VWS V14.01,2013-10-30 02:55:00,
2013-10-29 23:00:00,51.7,42.6,30.23,SSE,155,1.0,4.0,71,0.00,,SKC,0.00,VWS V14.01,2013-10-30 03:00:00,
2013-10-29 23:05:00,51.6,42.9,30.23,SSE,148,0.0,4.0,72,0.00,,SKC,0.00,VWS V14.01,2013-10-30 03:05:00,
2013-10-29 23:11:00,51.6,42.9,30.23,SE,142,0.0,2.0,72,0.00,,SKC,0.00,VWS V14.01,2013-10-30 03:11:00,
2013-10-29 23:16:00,51.4,42.7,30.23,SE,142,0.0,2.0,72,0.00,,SKC,0.00,VWS V14.01,2013-10-30 03:16:00,
2013-10-29 23:21:00,51.4,42.7,30.23,SE,142,0.0,2.0,72,0.00,,SKC,0.00,VWS V14.01,2013-10-30 03:21:00,
2013-10-29 23:26:00,51.3,43.0,30.23,SE,137,0.0,2.0,73,0.00,,SKC,0.00,VWS V14.01,2013-10-30 03:26:00,
2013-10-29 23:31:00,51.1,43.5,30.23,SE,137,0.0,2.0,75,0.00,,SKC,0.00,VWS V14.01,2013-10-30 03:31:00,
2013-10-29 23:36:00,50.8,43.5,30.23,SE,137,0.0,2.0,76,0.00,,SKC,0.00,VWS V14.01,2013-10-30 03:36:00,
2013-10-29 23:41:00,50.7,44.1,30.21,SE,137,0.0,1.0,78,0.00,,SKC,0.00,VWS V14.01,2013-10-30 03:41:00,
2013-10-29 23:46:00,50.5,43.9,30.21,SE,137,0.0,2.0,78,0.00,,SKC,0.00,VWS V14.01,2013-10-30 03:46:00,
2013-10-29 23:51:00,50.4,44.1,30.21,SE,137,0.0,2.0,79,0.00,,SKC,0.00,VWS V14.01,2013-10-30 03:51:00,
2013-10-29 23:56:00,50.2,44.0,30.21,SE,137,0.0,2.0,79,0.00,,SKC,0.00,VWS V14.01,2013-10-30 03:56:00,